Theta_e
297 297 297 296 295 294 294 293 290 288 289 295 297 302 301 301 301 301 302 300 299 301 299 301 301 300 299 300 302 304 306 306 305 307 308 308 308 312
294 293 294 295 295 295 294 293 293 290 287 292 294 296 298 297 299 299 299 299 298 298 299 298 299 299 299 299 300 300 302 305 304 303 305 307 308 309
294 294 293 294 293 293 293 293 292 291 288 291 293 295 295 296 297 298 298 298 299 297 297 297 297 297 297 297 298 299 299 301 303 303 303 304 306 309
292 292 291 290 291 292 291 291 291 292 290 288 291 292 293 295 296 296 295 296 297 296 297 296 296 295 295 295 296 297 297 298 298 300 300 300 302 304
291 290 290 290 289 290 290 290 290 289 290 288 288 291 292 293 293 294 294 295 295 295 295 295 295 296 296 295 296 297 297 297 296 297 297 297 297 298
289 289 289 288 288 288 288 288 288 288 288 287 287 288 289 291 291 290 290 293 292 293 293 292 293 295 295 295 295 296 297 297 297 296 296 295 294 296
288 288 289 288 286 286 285 286 286 286 286 286 286 287 287 288 288 290 289 290 291 293 292 294 294 294 295 293 294 295 295 296 297 297 296 296 295 295
287 287 287 287 286 286 285 284 285 284 285 284 284 283 285 286 287 286 286 285 283 293 291 290 293 292 294 295 293 294 294 295 295 295 295 294 293 293
286 286 285 285 285 285 285 285 284 284 282 283 281 283 283 285 285 285 285 285 284 288 289 288 291 290 293 293 292 293 293 294 294 294 294 293 292 291
285 285 284 284 285 284 283 282 283 284 285 285 284 284 285 286 286 287 286 286 287 287 289 284 289 289 291 292 292 292 293 293 293 293 292 291 291 290
284 284 283 282 283 283 283 282 282 283 285 286 285 285 285 285 286 286 284 283 283 284 288 286 287 288 289 291 293 291 291 291 291 292 292 291 290 290
282 282 282 283 283 282 282 282 281 282 283 285 286 286 286 286 285 286 286 283 283 282 286 284 284 285 284 292 292 293 294 290 290 291 292 292 291 294
280 282 284 282 281 280 280 281 280 282 281 281 282 283 285 286 287 288 288 286 284 283 287 286 286 285 285 285 289 291 291 292 293 293 290 290 289 290
280 282 283 279 279 279 279 279 279 279 281 281 282 281 283 284 286 287 288 288 289 287 288 287 286 285 285 284 284 289 291 292 291 289 292 292 288 287
282 280 278 278 278 279 278 278 278 281 281 280 281 282 284 286 287 287 288 288 288 288 288 288 287 286 285 285 285 287 287 290 290 289 290 292 292 293
280 282 279 278 279 279 279 279 280 280 279 279 280 282 284 285 285 287 285 286 285 285 288 288 287 287 285 285 285 286 288 286 289 290 289 290 291 292
278 278 277 276 278 278 278 278 279 279 279 280 280 281 282 284 285 286 285 285 284 284 285 286 288 287 287 286 284 286 287 287 289 290 288 288 290 291
277 275 274 274 276 276 277 277 278 277 278 279 280 280 281 282 283 284 284 284 284 284 284 286 286 285 285 285 286 285 285 287 289 289 289 285 287 291
274 273 273 273 275 275 275 276 276 277 278 278 279 279 280 281 283 283 284 283 283 283 285 286 285 284 282 280 284 280 284 286 287 287 288 285 285 288
272 272 272 273 274 274 274 274 275 277 277 277 278 279 279 279 280 281 283 282 284 285 285 284 284 284 283 282 284 281 281 282 284 284 286 286 284 279
271 272 273 273 273 274 275 275 276 276 276 277 277 278 278 279 279 280 280 280 281 283 282 282 281 280 284 285 282 281 281 281 281 283 285 283 282 283
271 272 272 273 273 274 274 275 276 276 276 276 277 277 278 279 278 279 279 279 279 280 280 281 282 282 282 281 281 279 280 280 280 279 280 279 281 281
271 272 273 273 273 273 274 274 275 275 275 275 276 277 278 278 278 279 279 279 279 279 279 280 281 282 280 280 280 280 277 279 281 281 280 279 279 279
Wind_Speed
8 6 3 3 4 4 6 5 6 7 10 10 9 8 6 6 6 8 9 9 7 5 4 2 1 1 1 3 6 7 10 11 9 11 13 14 15 15
5 9 8 6 6 6 7 7 9 10 12 10 9 10 10 8 7 9 11 9 9 10 11 8 6 5 4 3 4 7 10 12 11 10 11 12 15 17
7 9 9 10 8 9 8 9 10 10 12 10 10 11 13 12 11 12 12 13 11 15 14 11 9 9 8 8 8 8 8 11 13 11 11 12 13 15
10 11 12 9 11 10 9 11 10 11 11 14 12 11 13 13 13 14 12 12 12 10 15 12 10 11 12 10 9 9 10 10 12 13 11 12 13 13
12 11 11 10 10 9 10 10 10 10 11 11 12 11 11 11 13 14 14 14 12 16 8 11 12 13 13 12 11 10 12 12 10 12 13 10 12 14
10 10 10 11 12 12 11 13 12 12 12 12 13 12 12 13 12 13 13 12 13 13 13 13 12 16 18 15 14 14 13 13 13 11 12 11 10 11
11 12 12 11 14 15 12 14 15 13 12 12 12 12 11 11 13 11 13 11 13 12 11 12 12 12 14 21 21 18 17 14 13 13 13 8 8 10
14 13 13 14 15 15 16 18 17 15 16 13 11 13 15 12 10 10 10 11 13 10 12 12 10 12 12 12 12 13 19 15 13 13 14 11 11 11
15 14 13 12 12 15 14 14 16 18 15 15 16 15 16 13 12 13 12 11 12 10 11 10 8 8 8 11 9 7 8 10 11 14 16 14 12 12
15 15 15 16 14 10 13 13 14 15 15 13 16 16 15 14 14 14 14 15 11 10 11 10 7 8 7 8 13 11 11 11 12 12 12 13 13 12
15 15 13 14 17 16 13 14 15 15 14 20 22 22 21 20 18 11 11 10 11 12 12 11 8 9 9 9 9 12 12 13 14 13 13 13 11 11
12 13 16 16 18 16 13 12 14 15 14 14 12 15 22 20 22 18 13 12 11 11 11 11 10 9 9 9 10 9 10 16 17 16 14 12 8 7
11 11 10 8 5 10 13 12 13 13 13 12 12 10 11 12 11 12 14 12 12 13 9 10 7 8 9 9 4 5 5 5 8 10 14 11 9 8
12 10 6 12 11 12 12 10 14 12 9 9 9 9 10 10 10 11 13 12 12 15 13 9 8 10 9 8 8 7 7 6 5 6 8 8 10 9
9 7 8 11 11 10 5 10 11 6 6 7 7 7 8 8 10 9 11 13 13 13 11 13 10 11 9 9 7 6 5 6 5 5 4 7 6 5
11 4 6 7 9 7 6 4 5 5 6 7 7 7 7 7 8 7 8 7 9 9 10 11 12 12 10 10 10 9 7 5 6 6 4 3 4 5
9 5 5 6 6 6 6 5 5 6 6 6 6 7 7 6 6 4 5 5 7 7 7 8 11 10 9 10 9 9 8 8 7 6 5 7 7 7
4 5 5 6 7 8 8 8 6 7 7 7 7 6 6 6 6 3 4 5 5 5 6 5 7 7 6 9 12 9 9 7 8 7 9 6 7 6
6 6 6 7 7 8 8 8 7 7 8 7 7 7 7 7 7 5 2 3 4 5 4 3 5 6 8 9 4 4 7 8 6 6 5 6 7 6
7 7 7 7 8 8 8 8 8 7 7 7 7 7 7 7 6 6 6 7 4 2 2 2 3 4 5 5 0 5 6 4 4 5 6 4 2 3
7 6 7 7 7 8 8 8 8 8 8 7 7 7 7 6 6 6 7 6 6 4 2 3 4 3 3 2 2 3 4 9 5 4 1 3 5 5
6 7 7 7 7 8 8 8 8 8 8 8 8 7 7 6 6 6 6 6 5 5 4 3 2 2 1 3 3 4 2 3 6 12 13 8 4 2
7 7 6 7 7 7 8 8 8 8 8 8 8 7 7 6 6 6 5 5 5 5 4 3 2 2 2 3 3 2 3 1 1 2 5 11 3 2
Wind_Direction
326 313 288 229 241 222 218 252 259 283 281 267 261 241 244 254 255 258 260 167 168 242 233 214 228 194 39 336 316 306 289 279 279 282 272 276 282 282
270 282 288 284 259 244 251 252 254 261 271 277 282 284 281 272 262 266 259 269 194 209 221 219 228 256 273 262 274 294 296 277 276 270 270 269 270 280
279 278 280 279 273 275 270 262 263 268 271 276 273 271 267 264 271 271 265 256 250 199 212 222 237 252 245 249 263 263 271 281 279 274 272 278 275 276
294 292 290 289 287 280 278 274 276 281 281 280 277 277 271 270 265 266 264 261 259 234 204 211 229 247 251 251 247 248 260 264 276 282 284 281 286 286
293 291 291 287 280 280 280 281 279 274 272 272 274 273 274 273 272 266 268 267 265 267 229 211 235 239 237 242 250 248 242 253 260 268 276 281 285 290
291 287 289 287 283 283 279 281 278 275 271 268 268 268 265 265 265 268 263 258 259 259 254 260 266 237 235 235 237 242 240 245 254 258 266 268 275 281
289 286 283 296 301 286 287 284 281 274 269 268 265 265 265 264 262 269 271 274 272 268 267 264 254 244 236 233 244 233 239 235 249 262 267 260 276 283
289 287 288 281 272 266 264 264 271 281 279 283 282 273 271 278 271 264 261 261 262 255 257 258 272 271 258 254 242 229 216 220 230 250 260 260 265 264
293 295 292 288 278 272 273 264 256 258 259 269 270 266 269 268 271 271 270 264 264 265 269 264 258 270 284 281 267 224 230 236 241 244 255 259 258 259
292 289 288 284 284 300 285 281 273 265 257 247 249 256 259 266 268 269 267 268 265 261 262 263 259 263 269 274 263 259 235 236 237 230 244 255 256 258
292 291 301 291 285 288 283 280 275 271 263 248 252 259 259 259 260 272 262 256 253 249 249 251 249 255 257 257 257 247 247 241 245 232 223 234 250 261
296 287 276 271 283 279 277 282 287 284 289 287 271 252 246 248 246 247 252 252 251 255 241 253 256 249 255 241 239 237 239 236 237 234 225 223 235 270
296 293 286 322 353 311 297 285 287 309 294 284 275 271 268 259 248 234 236 237 245 250 249 252 251 244 246 262 227 236 246 246 249 228 223 217 217 239
301 297 342 348 319 303 293 307 306 294 275 269 263 262 261 259 256 247 243 241 237 247 256 243 252 256 257 260 256 247 230 232 216 237 234 193 191 220
313 348 338 326 309 291 292 298 287 292 299 288 282 275 273 279 280 267 255 248 251 245 250 255 253 254 259 261 262 266 262 226 204 219 208 212 199 219
332 351 348 317 297 292 301 313 317 327 318 303 301 303 291 274 266 252 249 239 235 239 225 237 241 246 251 254 265 264 255 257 186 201 186 237 233 220
318 344 347 339 336 1 1 351 345 345 339 328 317 315 309 311 304 299 263 252 245 241 227 211 218 227 246 258 266 270 259 247 243 225 195 223 217 222
355 359 355 348 351 358 4 359 353 349 344 333 332 330 327 329 334 303 285 281 268 250 242 211 193 202 208 230 233 266 274 266 263 224 217 245 259 225
13 5 360 355 355 359 358 351 350 351 338 340 339 343 340 334 343 345 308 274 266 273 261 240 230 230 230 230 151 13 265 266 279 246 196 211 241 264
7 2 357 352 357 355 356 350 340 347 353 348 351 348 352 343 348 358 357 346 332 318 306 318 278 281 271 299 120 99 34 286 281 280 256 213 73 91
358 355 355 353 352 351 350 346 343 353 357 354 360 356 353 346 0 3 357 357 328 350 37 38 26 312 310 290 198 153 75 31 26 340 31 220 224 225
352 353 355 353 351 351 348 349 355 1 1 357 1 359 357 351 358 3 12 3 9 2 10 358 351 324 317 297 353 94 137 98 83 67 53 27 353 324
354 353 351 354 354 352 353 353 359 359 3 359 356 354 353 360 358 1 5 4 6 352 350 329 335 352 352 6 2 85 101 138 7 157 85 21 20 33